Vancouver, WA
on Wednesday, November 7, 2012

Wednesday
Previous Day Next Day
Daily Summary
 ActualAverageRecord
Temperature
Mean Temperature °F / °C 48°F / 9°C  
Max Temperature 57°F / 14°C 56°F / 13°C 67°F / 19°C (1941)
Min Temperature 36°F / 2°C 41°F / 5°C 28°F / -2°C (1895)
Degree Days
Heating Degree Days 18    
Month to date heating degree days 62  
Since 1 July heating degree days 381  
Cooling Degree Days 0    
Month to date cooling degree days 0  
Year to date cooling degree days 398  
Moisture
Dew Point 41°F / 5°C   
Average Humidity 72    
Maximum Humidity 93    
Minimum Humidity 51    
Precipitation
Precipitation 0.00 in / 0.00 cm 0.18 in / 4.57 cm 2.48 in / 6.30 cm (1906)
Month to date precipitation 0.50 1.20  
Year to date precipitation 31.66 27.66  
Snow
Snow 0.00 in / 0.00 cm in / cm in / cm ()
Month to date snowfall 0.0  
Since 1 July snowfall 0.0  
Since 1 September snowfall 0.0  
Snow Depth 0.00 in / 0.00 cm   
Wind
Wind Speed 1 mph / 1 km/h   
Max Wind Speed 14 mph / 23 km/h   
Max Gust Speed 23 mph / 37 km/h   
Visibility 5 miles / 9 kilometers   
Events Fog   

Key: T is trace of precipitation, MM is missing value
Source: NWS Daily Summary
Time(PST)TemperatureDew PointHumidity Pressure Visibility Wind DirectionWind SpeedGust SpeedPrecipitationEvents Conditions
12:53 AM 48.0°F / 8.9°C 46.0°F / 7.8°C 93% 30.12 in / 1019.9 hPa 10.0 miles / 16.1 kilometers Calm Calm - N/A   Clear
1:53 AM 45.0°F / 7.2°C 43.0°F / 6.1°C 93% 30.14 in / 1020.4 hPa 10.0 miles / 16.1 kilometers Calm Calm - N/A   Scattered Clouds
2:53 AM 46.9°F / 8.3°C 45.0°F / 7.2°C 93% 30.15 in / 1020.8 hPa 10.0 miles / 16.1 kilometers Calm Calm - N/A   Partly Cloudy
3:53 AM 45.0°F / 7.2°C 43.0°F / 6.1°C 93% 30.16 in / 1021.1 hPa 3.0 miles / 4.8 kilometers Calm Calm - N/A   Scattered Clouds
3:57 AM 44.6°F / 7.0°C 42.8°F / 6.0°C 93% 30.15 in / 1020.9 hPa 1.8 miles / 2.8 kilometers Calm Calm - N/A   Scattered Clouds
4:11 AM 42.8°F / 6.0°C 42.8°F / 6.0°C 100% 30.16 in / 1021.2 hPa 0.8 miles / 1.2 kilometers Calm Calm - N/A   Partly Cloudy
4:28 AM 42.8°F / 6.0°C 42.8°F / 6.0°C 100% 30.16 in / 1021.2 hPa 1.8 miles / 2.8 kilometers Calm Calm - N/A   Clear
4:30 AM 42.8°F / 6.0°C 42.8°F / 6.0°C 100% 30.16 in / 1021.2 hPa 4.0 miles / 6.4 kilometers Calm Calm - N/A   Partly Cloudy
4:35 AM 42.8°F / 6.0°C 42.8°F / 6.0°C 100% 30.16 in / 1021.2 hPa 1.5 miles / 2.4 kilometers Calm Calm - N/A   Partly Cloudy
4:37 AM 42.8°F / 6.0°C 41.0°F / 5.0°C 93% 30.16 in / 1021.2 hPa 0.8 miles / 1.2 kilometers Calm Calm - N/A   Partly Cloudy
4:53 AM 42.1°F / 5.6°C 39.9°F / 4.4°C 92% 30.17 in / 1021.4 hPa 1.0 miles / 1.6 kilometers Calm Calm - N/A   Scattered Clouds
5:01 AM 42.8°F / 6.0°C 39.2°F / 4.0°C 87% 30.17 in / 1021.6 hPa 0.5 miles / 0.8 kilometers Calm Calm - N/A Fog Fog
5:09 AM 42.8°F / 6.0°C 42.8°F / 6.0°C 100% 30.17 in / 1021.6 hPa 1.5 miles / 2.4 kilometers Calm Calm - N/A   Mostly Cloudy
5:11 AM 42.8°F / 6.0°C 42.8°F / 6.0°C 100% 30.17 in / 1021.6 hPa 3.0 miles / 4.8 kilometers Calm Calm - N/A   Mostly Cloudy
5:40 AM 42.8°F / 6.0°C 41.0°F / 5.0°C 93% 30.17 in / 1021.6 hPa 1.2 miles / 2.0 kilometers Calm Calm - N/A   Clear
5:43 AM 41.0°F / 5.0°C 39.2°F / 4.0°C 93% 30.17 in / 1021.6 hPa 0.8 miles / 1.2 kilometers Calm Calm - N/A   Mist
5:53 AM 42.1°F / 5.6°C 39.9°F / 4.4°C 92% 30.17 in / 1021.6 hPa 1.0 miles / 1.6 kilometers Calm Calm - N/A   Clear
5:56 AM 42.8°F / 6.0°C 41.0°F / 5.0°C 93% 30.17 in / 1021.6 hPa 2.0 miles / 3.2 kilometers Calm Calm - N/A   Clear
6:03 AM 39.2°F / 4.0°C 39.2°F / 4.0°C 100% 30.17 in / 1021.6 hPa 1.2 miles / 2.0 kilometers Calm Calm - N/A   Clear
6:14 AM 42.8°F / 6.0°C 39.2°F / 4.0°C 87% 30.17 in / 1021.6 hPa 2.5 miles / 4.0 kilometers Calm Calm - N/A   Clear
6:23 AM 41.0°F / 5.0°C 39.2°F / 4.0°C 93% 30.17 in / 1021.6 hPa 1.2 miles / 2.0 kilometers Calm Calm - N/A   Clear
6:32 AM 39.2°F / 4.0°C 39.2°F / 4.0°C 100% 30.17 in / 1021.6 hPa 0.8 miles / 1.2 kilometers Calm Calm - N/A   Clear
6:43 AM 42.8°F / 6.0°C 39.2°F / 4.0°C 87% 30.17 in / 1021.6 hPa 1.8 miles / 2.8 kilometers Calm Calm - N/A   Partly Cloudy
6:45 AM 42.8°F / 6.0°C 39.2°F / 4.0°C 87% 30.17 in / 1021.6 hPa 3.0 miles / 4.8 kilometers Calm Calm - N/A   Partly Cloudy
6:53 AM 41.0°F / 5.0°C 39.0°F / 3.9°C 93% 30.18 in / 1021.8 hPa 1.5 miles / 2.4 kilometers Calm Calm - N/A   Partly Cloudy
7:00 AM 41.0°F / 5.0°C 39.2°F / 4.0°C 93% 30.17 in / 1021.6 hPa 1.2 miles / 2.0 kilometers Calm Calm - N/A   Partly Cloudy
7:04 AM 41.0°F / 5.0°C 39.2°F / 4.0°C 93% 30.17 in / 1021.6 hPa 2.5 miles / 4.0 kilometers Calm Calm - N/A   Partly Cloudy
7:11 AM 41.0°F / 5.0°C 39.2°F / 4.0°C 93% 30.17 in / 1021.6 hPa 9.0 miles / 14.5 kilometers Calm Calm - N/A   Scattered Clouds
7:53 AM 44.1°F / 6.7°C 43.0°F / 6.1°C 96% 30.18 in / 1022.0 hPa 10.0 miles / 16.1 kilometers Calm Calm - N/A   Clear
8:53 AM 48.9°F / 9.4°C 45.0°F / 7.2°C 86% 30.18 in / 1022.0 hPa 10.0 miles / 16.1 kilometers Calm Calm - N/A   Clear
9:53 AM 52.0°F / 11.1°C 43.0°F / 6.1°C 71% 30.18 in / 1021.8 hPa 10.0 miles / 16.1 kilometers Calm Calm - N/A   Clear
10:53 AM 53.1°F / 11.7°C 41.0°F / 5.0°C 64% 30.17 in / 1021.7 hPa 10.0 miles / 16.1 kilometers Calm Calm - N/A   Partly Cloudy
11:53 AM 55.9°F / 13.3°C 39.9°F / 4.4°C 55% 30.16 in / 1021.1 hPa 10.0 miles / 16.1 kilometers Calm Calm - N/A   Clear
12:53 PM 55.9°F / 13.3°C 37.0°F / 2.8°C 49% 30.14 in / 1020.4 hPa 10.0 miles / 16.1 kilometers Variable 3.5 mph / 5.6 km/h - N/A   Clear
1:53 PM 54.0°F / 12.2°C 39.0°F / 3.9°C 57% 30.13 in / 1020.1 hPa 10.0 miles / 16.1 kilometers NW 9.2 mph / 14.8 km/h 23.0 mph / 37.0 km/h N/A   Scattered Clouds
2:53 PM 51.1°F / 10.6°C 39.0°F / 3.9°C 63% 30.12 in / 1019.8 hPa 10.0 miles / 16.1 kilometers NNW 3.5 mph / 5.6 km/h - N/A   Overcast
3:53 PM 53.1°F / 11.7°C 37.0°F / 2.8°C 55% 30.09 in / 1019.0 hPa 10.0 miles / 16.1 kilometers Calm Calm - N/A   Scattered Clouds
4:53 PM 51.1°F / 10.6°C 37.9°F / 3.3°C 61% 30.08 in / 1018.4 hPa 10.0 miles / 16.1 kilometers Calm Calm - N/A   Clear
5:53 PM 46.0°F / 7.8°C 39.0°F / 3.9°C 76% 30.06 in / 1017.9 hPa 10.0 miles / 16.1 kilometers Calm Calm - N/A   Mostly Cloudy
6:53 PM 44.1°F / 6.7°C 39.0°F / 3.9°C 82% 30.04 in / 1017.3 hPa 10.0 miles / 16.1 kilometers Calm Calm - N/A   Clear
7:53 PM 44.1°F / 6.7°C 39.0°F / 3.9°C 82% 30.03 in / 1016.7 hPa 10.0 miles / 16.1 kilometers Calm Calm - N/A   Partly Cloudy
8:53 PM 45.0°F / 7.2°C 42.1°F / 5.6°C 90% 30.01 in / 1016.1 hPa 10.0 miles / 16.1 kilometers Calm Calm - N/A   Partly Cloudy
9:53 PM 43.0°F / 6.1°C 39.9°F / 4.4°C 89% 29.99 in / 1015.4 hPa 10.0 miles / 16.1 kilometers Calm Calm - N/A   Mostly Cloudy
10:53 PM 39.0°F / 3.9°C 37.0°F / 2.8°C 93% 29.96 in / 1014.5 hPa 4.0 miles / 6.4 kilometers Calm Calm - N/A   Clear
11:53 PM 37.9°F / 3.3°C 36.0°F / 2.2°C 93% 29.95 in / 1014.0 hPa 6.0 miles / 9.7 kilometers Calm Calm - N/A   Partly Cloudy
Moon Phase
Nov. 07 Nov. 13 Nov. 20 Nov. 28 Dec. 06
Sunrise:06:59 AM (PST) Moon Rise:No Moon Rise/
Sunset:04:48 PM (PST) Moon Set:01:18 PM (PST)11/7

Copyright © 2014 The Weather Underground, Inc.